Regional Weather Roundup
Issued by NWS

Home | Current Version | Previous Version | Text Only | Print | Product List | Glossary Off
Versions: 1 2 3 4 5 6 7 8 9 10 11 12 13 14 15 16 17 18 19 20 21 22 23 24 25 26 27 28 29 30 31 32 33 34 35 36 37 38 39 40 41 42 43 44 45 46 47 48

000
ASUS45 KSLC 280310
RWRUT

UTAH REGIONAL WEATHER ROUNDUP
NATIONAL WEATHER SERVICE SALT LAKE CITY UT
900 PM MDT SUN JUL 27 2014

UTZ001>011-023>025-280400-

NORTHERN UTAH

CITY           SKY/WX    TMP DP  RH WIND       PRES   REMARKS
HILL AFB       PTCLDY    90  35  14 NE2       30.13R
LOGAN          CLEAR     84  43  23 NE3       30.10R
OGDEN          PTCLDY    89  35  14 CALM      30.08S
PROVO AIRPORT  MOCLDY    84  46  26 S9        30.12R
SALT LAKE CITY MOCLDY    86  45  23 CALM      30.07R
VERNAL         PTCLDY    79  51  37 W6        30.18R
WENDOVER       MOCLDY    90  39  17 W12G20    30.09R
HEBER CITY     PTCLDY    81  39  22 CALM      30.20R
WEST JORDAN    CLEAR     86  48  26 SW3       30.12R

$$

UTZ012>022-026-027-280400-

SOUTHERN UTAH

CITY           SKY/WX    TMP DP  RH WIND       PRES   REMARKS
BRYCE CANYON   MOCLDY    62  55  77 N6        30.42R
CEDAR CITY     CLOUDY    72  55  55 N5        30.26R
MILFORD        CLOUDY    84  47  27 N8        30.18R
MOAB/CYNLANDS  PTCLDY    86  47  25 N9        30.12R
PRICE          PTCLDY    86  33  15 E8        30.23R
ST GEORGE      PTCLDY    88  50  27 S9        30.03R
KANAB            N/A     77  50  38 SW3       30.21R

$$

REGIONAL REPORTS     COLORADO/ARIZONA

CITY           SKY/WX    TMP DP  RH WIND       PRES   REMARKS
CRAIG, CO      PTCLDY    61  53  75 CALM      30.28R
GRAND JUNCTION MOCLDY    81  48  31 SE10      30.18R
RIFLE          MOCLDY    81  43  26 SE17      30.21R
MONTROSE       CLOUDY    74  53  48 SE6       30.31R
CORTEZ         CLOUDY    71  56  58 VRB7      30.40R
PAGE, AZ       CLOUDY    87  51  28 NW6       30.10R
GRAND CANYON   LGT RAIN  64  55  72 E9        30.40R
KINGMAN        MOCLDY    86  54  33 CALM      30.08S HAZE
FLAGSTAFF      CLOUDY    66  47  50 E10       30.40R

$$

REGIONAL REPORTS    NEVADA/IDAHO/WYOMING

CITY           SKY/WX    TMP DP  RH WIND       PRES   REMARKS
LAS VEGAS, NV  TSTM      85  61  44 S22G33    29.99R
ELY            CLOUDY    66  53  63 NW8       30.37R
ELKO           CLOUDY    84  40  21 NW9       30.16R
POCATELLO, ID  CLEAR     83  41  22 E5        30.12S
BURLEY         MOCLDY    79  49  34 SW5       30.07R
EVANSTON, WY   PTCLDY    76  24  14 E6        30.34S
ROCK SPRINGS   CLEAR     74  21  13 E12       30.34R

$$


USA.gov is the U.S. government's official web portal to all federal, state and local government web resources and services.